When you browse on this site, cookies collect data to enhance your experience and personalize the content and advertising you see.
Visit our Privacy Policy to learn more. By continuing to use the site, you agree to this use of cookies and data.
  • In Österreich
  • Länderverzeichnis
  • Für 7 Tage
  • Wassertemperatur
  • Wetterkarte
  • News
  • Widgets
  • user-avatar
    Anmelden

    Stündliche Wetter Vizeu

    Heute, 2 April, Donnerstag

    Zeit Temperatur Niederschläge Wind Luftdruck Luftfeuchtigkeit
    00:00 +5°C° 0 mm 1 m/S 716 mmHg 81%
    01:00 +5°C° 0 mm 1 m/S 716 mmHg 81%
    02:00 +5°C° 0 mm 1 m/S 716 mmHg 81%
    03:00 +5°C° 0 mm 1 m/S 716 mmHg 80%
    04:00 +5°C° 0 mm 1 m/S 716 mmHg 79%
    05:00 +5°C° 0 mm 1 m/S 716 mmHg 78%
    06:00 +8°C° 0 mm 1 m/S 717 mmHg 73%
    07:00 +9°C° 0 mm 2 m/S 718 mmHg 67%
    08:00 +13°C° 0 mm 2 m/S 719 mmHg 62%
    09:00 +14°C° 0 mm 2 m/S 719 mmHg 58%
    10:00 +15°C° 0 mm 2 m/S 719 mmHg 54%
    11:00 +16°C° 0 mm 3 m/S 719 mmHg 51%
    12:00 +17°C° 0 mm 2 m/S 719 mmHg 50%
    13:00 +17°C° 0 mm 2 m/S 718 mmHg 49%
    14:00 +17°C° 0 mm 2 m/S 718 mmHg 49%
    15:00 +16°C° 0 mm 2 m/S 718 mmHg 55%
    16:00 +16°C° 0 mm 2 m/S 718 mmHg 60%
    17:00 +15°C° 0 mm 2 m/S 718 mmHg 66%
    18:00 +13°C° 0 mm 1 m/S 718 mmHg 73%
    19:00 +11°C° 0 mm 1 m/S 719 mmHg 80%
    20:00 +8°C° 0 mm 0 m/S 719 mmHg 87%
    21:00 +8°C° 0 mm 0 m/S 719 mmHg 87%
    22:00 +8°C° 0 mm 0 m/S 719 mmHg 87%
    23:00 +9°C° 0 mm 1 m/S 719 mmHg 87%

    Morgen, 3 April, Freitag

    Zeit Temperatur Niederschläge Wind Luftdruck Luftfeuchtigkeit
    00:00 +8°C° 0 mm 1 m/S 719 mmHg 88%
    01:00 +8°C° 0 mm 1 m/S 719 mmHg 88%
    02:00 +8°C° 0 mm 1 m/S 719 mmHg 89%
    03:00 +8°C° 0 mm 1 m/S 719 mmHg 88%
    04:00 +7°C° 0 mm 2 m/S 719 mmHg 88%
    05:00 +6°C° 0 mm 2 m/S 719 mmHg 87%
    06:00 +9°C° 0 mm 2 m/S 719 mmHg 78%
    07:00 +12°C° 0 mm 2 m/S 720 mmHg 70%
    08:00 +14°C° 0 mm 2 m/S 720 mmHg 61%
    09:00 +16°C° 0 mm 2 m/S 720 mmHg 55%
    10:00 +18°C° 0 mm 1 m/S 720 mmHg 50%
    11:00 +20°C° 0 mm 1 m/S 720 mmHg 44%
    12:00 +21°C° 0 mm 1 m/S 720 mmHg 43%
    13:00 +21°C° 0 mm 1 m/S 719 mmHg 42%
    14:00 +21°C° 0 mm 1 m/S 719 mmHg 41%
    15:00 +20°C° 0 mm 1 m/S 719 mmHg 47%
    16:00 +19°C° 0 mm 1 m/S 719 mmHg 52%
    17:00 +18°C° 0 mm 1 m/S 718 mmHg 58%
    18:00 +15°C° 0 mm 1 m/S 718 mmHg 64%
    19:00 +13°C° 0 mm 1 m/S 718 mmHg 69%
    20:00 +11°C° 0 mm 1 m/S 718 mmHg 75%
    21:00 +11°C° 0 mm 1 m/S 718 mmHg 75%
    22:00 +10°C° 0 mm 1 m/S 718 mmHg 76%
    23:00 +10°C° 0 mm 1 m/S 718 mmHg 76%

    übermorgen, 4 April, Samstag

    Zeit Temperatur Niederschläge Wind Luftdruck Luftfeuchtigkeit
    00:00 +9°C° 0 mm 2 m/S 718 mmHg 76%
    01:00 +9°C° 0 mm 2 m/S 718 mmHg 76%
    02:00 +8°C° 0 mm 2 m/S 717 mmHg 76%
    03:00 +8°C° 0 mm 2 m/S 717 mmHg 77%
    04:00 +8°C° 0 mm 2 m/S 717 mmHg 79%
    05:00 +8°C° 0 mm 2 m/S 717 mmHg 80%
    06:00 +10°C° 0 mm 3 m/S 718 mmHg 73%
    07:00 +12°C° 0 mm 3 m/S 718 mmHg 67%
    08:00 +14°C° 0 mm 3 m/S 718 mmHg 60%
    09:00 +15°C° 0 mm 4 m/S 718 mmHg 56%
    10:00 +16°C° 0 mm 5 m/S 718 mmHg 53%
    11:00 +17°C° 0 mm 5 m/S 718 mmHg 49%
    12:00 +17°C° 0 mm 5 m/S 718 mmHg 49%
    13:00 +17°C° 0 mm 5 m/S 718 mmHg 48%
    14:00 +17°C° 0 mm 5 m/S 717 mmHg 48%
    15:00 +17°C° 0 mm 4 m/S 717 mmHg 53%
    16:00 +15°C° 0 mm 4 m/S 717 mmHg 58%
    17:00 +14°C° 0 mm 3 m/S 717 mmHg 63%
    18:00 +14°C° 0 mm 3 m/S 717 mmHg 65%
    19:00 +13°C° 0 mm 3 m/S 718 mmHg 68%
    20:00 +13°C° 0 mm 2 m/S 718 mmHg 71%
    21:00 +13°C° 0 mm 2 m/S 718 mmHg 76%
    22:00 +12°C° 0 mm 2 m/S 718 mmHg 81%
    23:00 +10°C° 0 mm 2 m/S 718 mmHg 85%

    5 April, Sonntag

    Zeit Temperatur Niederschläge Wind Luftdruck Luftfeuchtigkeit
    00:00 +12°C° 0.1 mm 2 m/S 718 mmHg 87%
    01:00 +12°C° 0.1 mm 2 m/S 718 mmHg 88%
    02:00 +12°C° 0.1 mm 1 m/S 717 mmHg 89%
    03:00 +12°C° 0.1 mm 1 m/S 718 mmHg 90%
    04:00 +12°C° 0.1 mm 1 m/S 718 mmHg 91%
    05:00 +12°C° 0.1 mm 1 m/S 718 mmHg 92%
    06:00 +12°C° 0.2 mm 1 m/S 718 mmHg 92%
    07:00 +13°C° 0.2 mm 1 m/S 719 mmHg 91%
    08:00 +13°C° 0.2 mm 1 m/S 719 mmHg 90%
    09:00 +15°C° 0.6 mm 2 m/S 719 mmHg 87%
    10:00 +16°C° 0.6 mm 3 m/S 720 mmHg 83%
    11:00 +17°C° 0.6 mm 4 m/S 720 mmHg 79%
    12:00 +17°C° 0.9 mm 4 m/S 720 mmHg 79%
    13:00 +18°C° 0.9 mm 4 m/S 719 mmHg 78%
    14:00 +18°C° 0.9 mm 4 m/S 719 mmHg 78%
    15:00 +17°C° 1.4 mm 4 m/S 719 mmHg 84%
    16:00 +16°C° 1.4 mm 3 m/S 719 mmHg 90%
    17:00 +14°C° 1.4 mm 3 m/S 719 mmHg 95%
    18:00 +13°C° 3.2 mm 3 m/S 719 mmHg 96%
    19:00 +13°C° 3.2 mm 3 m/S 719 mmHg 97%
    20:00 +13°C° 3.2 mm 3 m/S 720 mmHg 98%
    21:00 +14°C° 1.8 mm 2 m/S 720 mmHg 97%
    22:00 +13°C° 1.8 mm 2 m/S 721 mmHg 97%
    23:00 +13°C° 1.8 mm 1 m/S 721 mmHg 97%

    6 April, Montag

    Zeit Temperatur Niederschläge Wind Luftdruck Luftfeuchtigkeit
    00:00 +13°C° 0.2 mm 1 m/S 721 mmHg 96%
    01:00 +13°C° 0.2 mm 1 m/S 721 mmHg 96%
    02:00 +11°C° 0.2 mm 0 m/S 721 mmHg 96%
    03:00 +11°C° 0.1 mm 0 m/S 721 mmHg 95%
    04:00 +10°C° 0.1 mm 0 m/S 722 mmHg 95%
    05:00 +10°C° 0.1 mm 0 m/S 722 mmHg 95%
    06:00 +11°C° 0 mm 0 m/S 723 mmHg 91%
    07:00 +13°C° 0 mm 0 m/S 723 mmHg 86%
    08:00 +15°C° 0 mm 0 m/S 724 mmHg 82%
    09:00 +18°C° 0 mm 1 m/S 724 mmHg 75%
    10:00 +19°C° 0 mm 1 m/S 724 mmHg 67%
    11:00 +20°C° 0 mm 2 m/S 725 mmHg 60%
    12:00 +20°C° 0.1 mm 2 m/S 725 mmHg 58%
    13:00 +20°C° 0.1 mm 2 m/S 725 mmHg 56%
    14:00 +20°C° 0.1 mm 2 m/S 725 mmHg 54%
    15:00 +20°C° 0 mm 2 m/S 724 mmHg 60%
    16:00 +19°C° 0 mm 2 m/S 724 mmHg 65%
    17:00 +19°C° 0 mm 1 m/S 724 mmHg 71%
    18:00 +16°C° 0 mm 1 m/S 724 mmHg 77%
    19:00 +14°C° 0 mm 1 m/S 725 mmHg 84%
    20:00 +11°C° 0 mm 0 m/S 725 mmHg 90%
    21:00 +11°C° 0 mm 0 m/S 725 mmHg 90%
    22:00 +11°C° 0 mm 0 m/S 725 mmHg 90%
    23:00 +12°C° 0 mm 1 m/S 726 mmHg 90%

    7 April, Dienstag

    Zeit Temperatur Niederschläge Wind Luftdruck Luftfeuchtigkeit
    00:00 +12°C° 0 mm 1 m/S 725 mmHg 90%
    01:00 +12°C° 0 mm 1 m/S 725 mmHg 90%
    02:00 +12°C° 0 mm 1 m/S 724 mmHg 91%
    03:00 +12°C° 0 mm 1 m/S 725 mmHg 91%
    04:00 +12°C° 0 mm 1 m/S 725 mmHg 91%
    05:00 +12°C° 0 mm 1 m/S 725 mmHg 91%
    06:00 +13°C° 0 mm 1 m/S 725 mmHg 85%
    07:00 +15°C° 0 mm 1 m/S 725 mmHg 79%
    08:00 +18°C° 0 mm 1 m/S 725 mmHg 73%
    09:00 +19°C° 0 mm 1 m/S 725 mmHg 71%
    10:00 +18°C° 0 mm 2 m/S 726 mmHg 70%
    11:00 +18°C° 0 mm 2 m/S 726 mmHg 68%
    12:00 +18°C° 0 mm 2 m/S 725 mmHg 70%
    13:00 +19°C° 0 mm 1 m/S 725 mmHg 71%
    14:00 +19°C° 0 mm 1 m/S 724 mmHg 73%
    15:00 +19°C° 0.1 mm 1 m/S 724 mmHg 76%
    16:00 +18°C° 0.1 mm 1 m/S 724 mmHg 80%
    17:00 +18°C° 0.1 mm 1 m/S 724 mmHg 83%
    18:00 +16°C° 0.2 mm 1 m/S 724 mmHg 87%
    19:00 +15°C° 0.2 mm 1 m/S 724 mmHg 90%
    20:00 +14°C° 0.2 mm 0 m/S 724 mmHg 93%
    21:00 +13°C° 0.6 mm 0 m/S 724 mmHg 95%
    22:00 +13°C° 0.6 mm 0 m/S 724 mmHg 96%
    23:00 +13°C° 0.6 mm 0 m/S 724 mmHg 97%
    Mehr zeigen